Tracking 31013 objects as of 10-Jul-2025
HD Live streaming from Space Station
objects crossing your sky now

DELTA 1 DEB

Track DELTA 1 DEB now!
10-day predictions


NORAD ID: 15540
Int'l Code: 1976-077EU
Perigee: 1,379.1 km
Apogee: 2,291.6 km
Inclination: 102.7 °
Period: 123.3 minutes
Semi major axis: 8206 km
RCS: 0.045 m2 (small)
Launch date: July 29, 1976
Source: United States (US)
Launch site: AIR FORCE WESTERN TEST RANGE (AFWTR)

Note: This is SATELLITE DEBRIS
Your satellite tracking list
Your tracking list is empty




NASA's NSSDC Master Catalog

Two Line Element Set (TLE):
1 15540U 76077EU  25187.38764024  .00000461  00000-0  61628-2 0  9995
2 15540 102.6890 161.9475 0555973 216.9289 317.2909 11.67816592458674
Source of the keplerian elements: AFSPC